CUSAT 2 & FALCON 9 R/B (39271 NORAD) Tracking and Keplerian Element Data

This shows tracking and keplerian element data for the satellite.

Feedback or suggestion? Click here.




ElementValue
Catalog39271
NameCUSAT 2 & FALCON 9 R/B
Epoch Orbit27061
Epoch Day344.92295138
Epoch Year2018
RAAN141.2158
Inclination80.9663
Eccentricity0.0608702
Argument of Perigee31.8323
Mean Anonmoly331.8178
Mean Motion14.43253045
Decay Rate4.159E-05
L11 39271U 13055G 18344.92295138 .00004159 00000-0 10202-3 0 9992
L22 39271 80.9663 141.2158 0608702 31.8323 331.8178 14.43253045270619

Live tracking and technical data element details for CUSAT 2 & FALCON 9 R/B (NORAD 39271). CUSAT 2 & FALCON 9 R/B can be tracked NOW for your location showing map with azimuth and elevation plus other details from your city location.

Track the satellite on the map from your city or location and see movement details for azimuth, elevation, latitude, longitude, range, height, and movement on the map or in text.







IsCatalogInMostPopularTable: catalog: 39271, numindb: 174
Update: records affected: 1



GetName: 39271 CUSAT 2 & FALCON 9 R/B

Hit Count: updated at: Thu, 13 Dec 2018 03:27:23 GMT